Date,TemperatureHighF,TemperatureAvgF,TemperatureLowF,DewpointHighF,DewpointAvgF,DewpointLowF,HumidityHigh,HumidityAvg,HumidityLow,PressureMaxIn,PressureMinIn,WindSpeedMaxMPH,WindSpeedAvgMPH,GustSpeedMaxMPH,PrecipitationSumIn
2013-1-1,49.5,46.4,43.0,47.8,40.9,21.4,96,83,38,29.23,29.09,13,2,13,0.94
2013-1-2,43.7,38.5,36.3,41.8,30.7,26.7,93,74,61,29.29,29.15,12,3,12,0.00
2013-1-3,44.6,36.6,29.1,29.3,20.2,12.0,76,53,29,29.50,29.26,9,3,9,0.00
2013-1-4,47.5,30.9,25.5,15.4,12.6,4.7,63,48,19,29.50,29.47,8,2,8,0.00
2013-1-5,55.2,44.4,26.1,26.7,17.2,6.8,67,36,16,29.50,29.35,9,2,9,0.00
2013-1-6,50.2,40.9,35.6,37.9,28.0,19.7,84,62,36,29.41,29.29,8,1,8,0.04
2013-1-7,58.6,40.5,28.6,21.0,17.5,10.2,68,43,17,29.50,29.41,9,3,9,0.00
2013-1-8,59.2,48.6,36.9,34.8,25.4,17.1,58,41,26,29.50,29.38,11,3,11,0.00
2013-1-9,56.7,52.1,49.3,51.9,45.0,34.8,93,77,57,29.53,29.44,6,1,6,0.04
2013-1-10,62.1,55.9,49.5,55.6,49.1,42.0,95,80,48,29.53,29.20,24,4,24,0.04
2013-1-11,64.2,62.9,61.7,62.3,57.6,50.9,96,84,68,29.26,29.18,28,6,28,0.12
2013-1-12,69.8,65.1,63.0,64.5,56.0,46.6,96,75,51,29.23,29.09,12,5,12,0.08
2013-1-13,67.5,63.4,55.8,59.2,52.7,46.2,92,69,47,29.18,29.06,17,6,17,0.91
2013-1-14,55.8,43.0,38.1,52.6,40.8,36.3,95,92,81,29.32,29.18,11,4,11,2.76
2013-1-15,43.3,41.4,38.7,42.3,40.2,37.3,97,96,95,29.23,29.03,8,2,8,1.57
2013-1-16,50.0,44.9,41.7,48.5,42.8,38.3,97,92,85,29.15,29.00,10,2,10,0.16
2013-1-17,42.4,38.6,33.3,40.8,31.7,0.0,94,78,47,29.41,28.82,17,6,17,0.79
2013-1-18,51.6,37.7,29.3,25.8,17.9,10.4,71,47,21,29.59,29.41,9,2,9,0.04
2013-1-19,57.6,40.4,28.0,24.9,16.7,7.1,74,43,14,29.47,29.26,13,2,13,0.00
2013-1-20,67.1,48.1,33.8,28.1,17.8,9.8,59,33,13,29.26,29.18,8,1,8,0.04
2013-1-21,55.6,40.1,30.6,29.5,8.9,-4.0,70,32,13,29.24,29.15,14,2,14,0.04
2013-1-22,46.9,32.9,23.7,1.1,-2.7,-7.2,32,22,14,29.41,29.26,13,4,13,0.00
2013-1-23,55.6,42.2,30.9,29.4,7.5,-4.4,47,25,15,29.38,29.18,8,2,8,0.00
2013-1-24,49.6,46.4,39.0,29.2,16.0,-0.9,46,32,15,29.35,29.18,17,4,17,0.00
2013-1-25,36.3,34.6,32.7,31.1,16.9,-2.7,81,54,19,29.29,29.12,17,4,17,0.04
2013-1-26,49.6,40.0,33.3,32.6,22.5,15.9,85,53,27,29.32,29.18,10,2,10,0.04
2013-1-27,54.5,41.4,32.0,25.9,21.7,16.6,72,49,26,29.41,29.32,13,4,13,0.00
2013-1-28,56.1,48.4,42.6,40.1,28.2,16.0,76,47,31,29.35,29.23,11,4,11,0.00
2013-1-29,66.7,55.0,43.9,52.5,44.9,36.5,83,70,49,29.23,28.85,17,2,17,0.00
2013-1-30,66.2,55.0,36.7,62.5,46.4,11.6,92,74,35,28.85,28.59,23,6,23,1.77
2013-1-31,52.3,39.8,32.5,16.7,11.2,3.8,45,32,16,29.09,28.85,14,3,14,0.00
2013-2-1,42.6,33.1,24.6,19.1,0.3,-8.8,43,25,16,29.35,29.06,19,4,19,0.00
2013-2-2,35.1,30.3,21.6,29.0,16.9,0.5,84,59,31,29.29,29.06,13,2,13,0.08
2013-2-3,56.8,40.7,30.4,42.0,18.4,5.2,92,49,15,29.09,28.97,15,3,15,0.00
2013-2-4,48.9,37.6,26.8,20.3,15.8,12.3,65,43,26,29.06,28.91,8,2,8,0.00
2013-2-5,68.7,51.0,41.0,35.8,27.2,15.9,75,43,15,28.97,28.85,11,2,11,0.00
2013-2-6,70.5,51.8,33.6,42.7,21.6,7.4,85,40,12,29.12,28.97,8,1,8,0.00
2013-2-7,51.3,46.5,43.9,41.5,30.6,20.0,85,55,37,29.03,28.82,6,0,6,0.04
2013-2-8,55.4,45.8,35.8,47.8,34.0,17.6,94,68,30,29.12,28.79,13,4,13,0.08
2013-2-9,61.9,46.2,31.6,23.2,15.1,5.9,57,32,14,29.18,29.06,11,3,11,0.00
2013-2-10,55.4,50.4,47.5,49.0,23.6,10.6,92,42,17,29.09,28.85,24,7,24,1.10
2013-2-11,57.2,50.9,41.5,55.5,38.5,20.3,95,67,28,28.94,28.85,13,2,13,0.12
2013-2-12,54.5,44.0,37.0,38.0,25.5,16.4,84,51,25,28.94,28.61,10,1,10,0.12
2013-2-13,47.5,42.8,39.0,46.1,35.8,24.0,95,77,48,28.76,28.50,16,2,16,0.12
2013-2-14,60.4,45.2,34.9,30.8,20.7,11.9,65,40,17,28.82,28.73,9,2,9,0.00
2013-2-15,67.6,47.6,36.1,30.9,20.9,13.0,68,38,15,28.82,28.70,17,3,17,0.00
2013-2-16,47.1,35.2,25.0,15.6,6.2,-4.4,43,31,16,28.85,28.73,17,4,17,0.00
2013-2-17,51.6,35.4,19.2,9.4,1.7,-4.7,47,26,14,28.94,28.85,12,1,12,0.00
2013-2-18,61.0,48.0,29.3,11.6,7.2,3.5,40,20,14,28.94,28.61,27,7,27,0.00
2013-2-19,58.6,46.2,35.6,44.5,20.5,-4.7,88,45,14,28.79,28.58,21,5,21,0.31
2013-2-20,48.4,37.8,27.0,9.2,1.4,-5.9,41,22,14,28.85,28.73,10,3,10,0.00
2013-2-21,64.0,49.8,28.4,41.0,20.3,-3.2,89,42,11,28.76,28.50,14,2,14,0.75
2013-2-22,46.4,44.8,43.3,41.8,37.2,32.2,88,75,59,28.67,28.56,19,5,19,0.63
2013-2-23,55.6,47.5,40.8,47.4,40.9,34.8,93,79,49,28.56,28.41,6,0,6,0.35
2013-2-24,61.3,47.7,34.0,36.8,17.3,4.6,82,36,14,28.59,28.47,10,2,10,0.00
2013-2-25,56.1,46.2,37.4,35.8,20.1,12.6,72,36,22,28.56,28.26,23,3,23,0.16
2013-2-26,48.2,43.2,39.7,43.6,33.9,23.3,91,71,43,28.29,28.05,17,5,17,0.87
2013-2-27,60.1,46.1,38.7,25.6,19.7,11.5,54,37,17,28.41,28.29,13,3,13,0.87
2013-2-28,41.2,38.7,35.6,17.4,14.7,10.3,42,37,31,28.50,28.35,15,3,15,0.00
2013-3-1,45.3,37.4,34.0,24.0,16.8,13.1,66,43,29,28.50,28.44,10,2,10,0.00
2013-3-2,39.7,34.6,31.3,24.4,16.6,10.2,68,48,33,28.53,28.44,13,4,13,0.00
2013-3-3,42.4,32.5,26.1,17.4,7.3,-0.9,59,35,21,28.56,28.50,13,4,13,0.00
2013-3-4,57.6,43.3,24.6,17.0,9.2,4.6,54,28,14,28.61,28.41,10,2,10,0.00
2013-3-5,61.0,53.7,37.6,51.9,34.5,14.9,83,49,26,28.41,28.11,30,6,30,0.47
2013-3-6,43.5,36.6,32.2,15.0,12.2,9.8,46,36,29,28.64,28.38,23,7,23,0.47
2013-3-7,53.1,39.7,31.6,18.0,14.8,11.3,52,37,21,28.73,28.64,12,4,12,0.47
2013-3-8,61.3,42.1,28.8,18.5,12.3,1.5,58,35,12,28.76,28.64,12,4,12,0.00
2013-3-9,61.3,50.4,36.1,20.8,12.3,7.1,48,24,14,28.70,28.53,13,3,13,0.00
2013-3-10,70.0,61.7,53.1,24.6,12.2,7.1,25,14,12,28.56,28.38,76,8,76,0.00
2013-3-11,60.6,53.5,40.8,51.4,40.6,24.5,91,65,25,28.41,28.17,26,5,26,0.59
2013-3-12,59.2,46.4,36.7,27.5,17.4,7.1,61,34,15,28.53,28.32,14,4,14,0.00
2013-3-13,55.4,40.9,31.3,18.0,9.7,-0.7,53,30,15,28.70,28.47,19,4,19,0.00
2013-3-14,57.6,40.7,26.2,23.6,7.2,0.7,50,27,12,28.79,28.61,10,3,10,0.00
2013-3-15,74.8,54.3,32.4,30.8,21.1,15.0,71,34,11,28.61,28.35,10,2,10,0.00
2013-3-16,81.7,69.3,54.5,29.7,22.3,14.4,36,18,9,28.38,28.26,13,3,13,0.00
2013-3-17,77.9,62.6,53.4,37.8,32.0,28.5,52,33,20,28.41,28.32,11,4,11,0.00
2013-3-18,61.3,56.6,51.1,54.2,47.7,37.5,94,74,47,28.35,28.20,17,5,17,0.63
2013-3-19,66.0,52.2,41.0,50.8,17.4,-1.5,94,34,12,28.53,28.32,16,4,16,0.00
2013-3-20,65.1,44.9,37.2,15.9,4.3,-4.4,40,19,11,28.53,28.29,16,2,16,0.00
2013-3-21,50.0,37.4,25.3,15.8,1.7,-4.8,42,23,14,28.44,28.32,13,4,15,0.00
2013-3-22,48.9,41.0,33.3,19.3,7.3,-3.5,38,25,17,28.44,28.35,6,1,6,0.00
2013-3-23,50.5,45.1,39.4,43.6,37.0,19.0,86,74,38,28.38,28.11,11,1,11,0.35
2013-3-24,58.3,50.0,38.5,53.0,39.1,13.2,94,69,35,28.20,27.85,17,4,20,1.85
2013-3-25,41.4,35.8,32.2,15.0,10.8,7.8,45,35,29,28.47,28.11,17,3,17,0.00
2013-3-26,42.8,35.7,31.5,17.4,12.3,9.1,55,38,29,28.67,28.44,16,5,16,0.00
2013-3-27,58.1,41.8,26.1,22.4,10.3,2.5,59,31,14,28.73,28.61,12,2,12,0.00
2013-3-28,65.5,47.5,29.1,24.9,12.4,4.4,59,28,13,28.73,28.59,13,2,13,0.00
2013-3-29,61.0,46.0,36.1,29.9,19.4,10.2,56,37,17,28.67,28.56,6,1,6,0.00
2013-3-30,72.0,55.3,43.5,51.1,35.6,18.5,90,56,14,28.59,28.38,8,1,8,0.20
2013-3-31,64.8,57.9,54.0,56.7,51.8,41.6,95,82,45,28.38,28.26,10,2,10,0.39
2013-4-1,71.4,57.3,43.9,56.2,32.8,16.2,93,49,15,28.47,28.26,14,2,14,0.04
2013-4-2,61.0,49.3,38.8,23.7,13.1,4.1,43,26,14,28.59,28.47,10,3,10,0.00
2013-4-3,61.5,48.5,41.4,34.9,9.7,2.4,64,22,14,28.53,28.44,11,3,11,0.00
2013-4-4,46.6,43.9,42.3,41.2,38.1,34.1,87,80,68,28.47,28.26,8,1,8,0.63
2013-4-5,64.4,51.3,41.7,44.2,32.5,15.2,91,59,16,28.35,28.23,12,3,12,0.04
2013-4-6,73.8,65.0,38.7,37.4,17.8,11.1,68,19,11,28.44,28.29,14,5,15,0.04
2013-4-7,76.3,64.0,51.4,32.3,24.8,15.3,39,24,13,28.44,28.29,16,3,16,0.00
2013-4-8,79.7,67.6,55.2,40.9,33.6,25.4,53,30,15,28.38,28.26,15,4,15,0.00
2013-4-9,82.0,69.8,54.5,49.9,37.5,30.0,66,34,17,28.41,28.20,14,3,14,0.00
2013-4-10,84.7,72.3,58.3,47.0,37.2,31.8,58,30,16,28.26,27.96,12,3,13,0.00
2013-4-11,78.4,68.6,61.9,59.8,46.5,37.8,91,49,25,28.02,27.64,17,6,19,0.91
2013-4-12,67.5,58.3,48.0,58.8,31.4,13.7,89,43,15,27.99,27.67,14,3,14,0.04
2013-4-13,76.5,56.6,44.2,33.3,23.1,10.3,60,33,10,28.05,27.88,10,1,10,0.00
2013-4-14,62.8,54.3,46.2,49.2,35.2,24.4,79,50,24,27.96,27.76,13,1,13,0.04
2013-4-15,76.1,64.7,55.8,53.6,44.4,34.3,82,53,22,27.91,27.73,11,2,11,0.00
2013-4-16,80.2,70.6,62.6,51.0,46.6,41.7,64,44,26,27.99,27.79,15,4,15,0.00
2013-4-17,87.1,73.8,63.3,59.6,48.4,38.5,87,44,20,27.91,27.70,10,2,10,0.59
2013-4-18,79.9,73.7,60.6,60.1,40.4,30.9,88,34,17,27.76,27.34,23,7,23,0.59
2013-4-19,72.0,56.0,41.7,58.5,37.0,18.6,84,51,32,27.61,27.23,22,4,22,0.71
2013-4-20,65.7,49.2,34.7,33.2,17.2,6.9,72,34,13,27.73,27.55,10,2,10,0.00
2013-4-21,72.9,57.6,39.9,26.9,17.3,10.3,51,24,11,27.76,27.58,8,2,8,0.00
2013-4-22,75.7,62.5,50.0,31.7,23.7,18.5,39,24,13,27.67,27.40,9,2,9,0.00
2013-4-23,75.7,62.4,49.1,33.0,23.2,17.4,36,23,13,27.52,27.26,11,4,11,0.00
2013-4-24,70.9,59.7,46.4,57.9,42.1,30.7,80,54,34,27.43,27.23,17,4,17,0.12
2013-4-25,68.5,53.2,38.8,31.7,22.0,7.1,69,36,12,27.55,27.37,12,2,12,0.00
2013-4-26,77.9,59.2,40.8,47.7,23.1,14.4,83,31,10,27.55,27.34,12,2,12,0.12
2013-4-27,64.4,56.4,52.3,51.8,47.2,40.1,91,73,44,27.49,27.20,13,2,13,0.47
2013-4-28,59.2,57.6,56.1,56.9,53.3,46.0,93,86,62,27.26,26.99,15,4,15,2.01
2013-4-29,72.1,63.1,54.9,58.8,47.0,35.0,94,61,27,27.17,26.99,8,1,8,0.00
2013-4-30,80.2,65.5,48.7,59.2,41.7,30.1,89,48,18,27.17,26.99,11,1,11,0.00
2013-5-1,75.7,67.4,61.2,50.6,41.8,35.0,66,41,23,27.29,27.08,14,3,14,0.00
2013-5-2,75.2,64.7,54.9,48.7,40.7,34.4,70,43,23,27.26,27.08,13,3,13,0.00
2013-5-3,66.9,62.6,60.1,43.7,40.6,35.6,54,45,34,27.17,26.99,18,4,18,0.00
2013-5-4,60.8,54.1,48.6,51.0,45.6,35.5,92,75,39,27.05,26.87,21,2,21,2.24
2013-5-5,64.8,51.6,46.8,50.4,44.4,33.1,92,79,33,26.93,26.72,7,1,7,1.06
2013-5-6,57.7,51.1,46.6,50.3,44.0,35.4,93,78,46,26.93,26.72,10,2,10,0.75
2013-5-7,71.6,59.2,50.0,54.5,41.6,29.6,94,59,23,27.02,26.84,8,1,9,0.12
2013-5-8,79.5,64.6,50.2,54.7,43.9,34.3,87,52,21,27.08,26.87,10,1,10,0.12
2013-5-9,85.6,69.3,55.6,57.2,41.4,23.1,83,44,14,27.17,26.93,8,1,8,0.12
2013-5-10,73.9,66.7,59.9,52.3,45.2,36.8,71,48,27,27.08,26.93,13,2,13,0.00
2013-5-11,78.1,68.0,55.8,61.8,49.5,39.7,83,55,26,26.96,26.75,11,2,11,0.28
2013-5-12,70.3,58.1,46.0,46.9,25.4,8.4,77,35,12,27.17,26.87,12,3,12,0.00
2013-5-13,71.4,55.2,39.2,38.5,21.4,10.2,71,33,12,27.23,26.96,10,1,10,0.00
2013-5-14,79.0,63.7,43.9,41.0,33.1,23.1,69,36,15,27.23,26.90,11,2,11,0.00
2013-5-15,88.9,71.4,58.3,49.2,38.0,22.0,65,34,10,27.17,26.81,6,1,6,0.00
2013-5-16,85.6,70.5,60.8,51.3,42.4,34.5,63,40,19,27.05,26.81,8,1,8,0.00
2013-5-17,82.0,69.8,60.3,60.8,48.4,38.8,88,49,23,27.05,26.84,10,1,10,0.20
2013-5-18,75.2,69.0,64.2,65.6,61.1,54.0,93,78,49,27.02,26.78,11,3,11,0.43
2013-5-19,71.1,67.3,62.4,69.2,65.2,56.2,94,93,79,27.08,26.84,9,2,13,1.14
2013-5-20,80.2,71.7,56.1,68.4,55.1,47.3,94,59,33,27.11,26.75,8,1,8,1.14
2013-5-21,88.5,76.1,63.0,70.4,53.2,39.1,90,51,20,26.99,26.67,11,2,11,0.00
2013-5-22,86.7,73.0,67.1,64.1,54.6,39.3,81,56,20,26.87,26.61,159,2,159,0.00
2013-5-23,85.8,72.4,61.0,66.2,50.6,35.1,87,54,19,26.90,26.70,8,1,8,0.00
2013-5-24,75.6,66.6,53.4,48.0,30.1,19.8,65,28,13,27.14,26.81,13,2,13,0.00
2013-5-25,79.5,65.9,48.2,40.9,29.3,14.9,70,31,10,27.23,26.99,8,1,8,0.00
2013-5-26,84.4,68.1,50.4,50.7,35.8,22.7,74,36,11,27.17,26.96,6,1,6,0.00
2013-5-27,86.2,72.5,56.1,54.9,42.1,28.2,73,38,13,27.14,26.87,12,1,12,0.00
2013-5-28,87.4,74.8,63.7,53.3,42.4,29.5,68,35,13,27.08,26.84,10,2,11,0.00
2013-5-29,86.7,74.1,64.8,49.9,43.6,35.3,56,35,19,27.08,26.87,11,3,11,0.00
2013-5-30,84.2,75.4,67.6,53.8,48.6,44.4,59,40,26,27.11,26.81,12,3,12,0.00
2013-5-31,86.4,75.8,67.6,56.3,48.5,39.9,65,40,22,27.02,26.72,12,4,12,0.00
2013-6-1,86.0,75.4,67.3,67.6,55.8,46.8,87,53,28,26.93,26.67,13,3,13,0.12
2013-6-2,81.9,73.9,66.6,72.1,58.5,47.2,91,63,30,26.84,26.55,8,1,8,0.08
2013-6-3,85.5,73.7,63.5,63.5,49.3,38.2,86,48,20,26.78,26.52,10,1,10,0.00
2013-6-4,87.8,72.1,59.0,58.4,45.6,36.8,77,43,18,26.87,26.61,0,0,0,0.00
2013-6-5,85.3,71.2,64.8,63.5,56.6,48.8,89,63,29,26.84,26.61,13,1,13,0.35
2013-6-6,82.4,74.4,66.4,67.1,58.0,48.4,91,61,32,26.72,26.31,8,2,8,0.00
2013-6-7,88.7,72.8,66.6,68.3,58.9,39.9,90,66,19,26.64,26.40,9,1,9,0.16
2013-6-8,81.0,71.8,65.8,69.1,58.4,46.3,93,67,30,26.81,26.49,6,1,6,0.00
2013-6-9,84.9,71.2,65.7,69.1,62.6,50.0,93,76,31,26.90,26.58,10,2,10,0.63
2013-6-10,81.0,70.9,67.3,68.2,63.4,49.7,93,80,35,26.75,26.46,10,3,10,0.12
2013-6-11,90.3,83.7,72.5,60.7,53.2,44.8,66,37,23,26.72,26.46,8,1,8,0.00
2013-6-12,92.7,80.1,70.7,72.8,60.2,51.2,83,54,27,26.70,22.50,6,0,6,0.12
2013-6-13,91.6,78.9,69.6,66.5,58.0,51.3,77,52,27,26.55,26.25,11,2,11,0.12
2013-6-14,86.0,74.1,62.2,57.9,42.8,28.6,70,37,14,26.52,20.64,10,2,13,0.12
2013-6-15,87.1,75.2,61.0,58.7,44.3,34.6,74,37,18,26.46,17.72,10,2,10,0.12
2013-6-16,89.1,76.8,64.4,65.3,52.5,40.6,89,49,19,17.72,17.72,13,2,13,0.35
2013-6-17,81.0,72.1,67.6,68.9,64.1,59.0,92,77,51,17.72,17.72,6,1,6,0.08
2013-6-18,79.5,72.0,66.0,72.1,64.1,58.6,93,77,53,17.72,17.72,13,2,13,0.31
2013-6-19,85.1,72.7,62.4,66.7,53.5,39.6,90,57,21,17.72,17.72,7,1,7,0.12
2013-6-20,88.0,75.7,66.4,65.8,52.7,42.5,81,49,21,17.72,17.72,8,1,8,0.00
2013-6-21,86.7,75.6,67.5,64.2,52.0,40.4,77,48,22,17.72,17.72,8,1,8,0.00
2013-6-22,89.1,75.6,65.5,64.1,50.2,37.7,80,47,18,17.72,17.72,6,1,6,0.00
2013-6-23,87.6,76.4,66.2,61.4,53.0,45.5,72,47,24,17.72,17.72,9,1,9,0.00
2013-6-24,89.4,75.5,67.6,66.7,57.3,45.2,83,57,22,17.72,17.72,8,1,8,0.00
2013-6-25,88.3,78.1,69.3,66.0,58.4,50.2,79,54,29,17.72,17.72,8,2,8,0.00
2013-6-26,91.8,79.1,70.2,68.3,59.9,44.9,83,56,20,17.72,17.72,10,2,10,0.00
2013-6-27,88.9,78.3,73.4,64.3,58.7,52.1,72,53,30,17.72,17.72,8,2,8,0.00
2013-6-28,93.7,77.9,66.9,70.2,57.7,40.5,86,56,17,17.72,17.72,15,1,15,0.16
2013-6-29,88.5,73.0,66.6,64.8,51.2,28.1,88,56,13,17.72,17.72,8,1,8,0.04
2013-6-30,90.9,77.1,64.4,59.0,44.7,24.5,71,37,10,17.72,0.00,8,1,8,0.00
2013-7-1,81.9,73.2,64.8,62.8,53.5,0.0,76,53,30,0.00,0.00,9,2,9,0.04
2013-7-2,83.5,76.3,64.8,71.0,57.0,46.5,94,56,30,17.72,0.00,10,2,10,0.00
2013-7-3,72.5,70.4,67.3,70.1,65.0,61.9,93,83,73,17.72,17.72,9,1,11,0.59
2013-7-4,73.8,69.6,67.1,67.7,64.8,58.5,92,85,63,17.72,17.72,11,2,11,0.75
2013-7-5,73.0,70.0,68.7,69.3,66.6,65.0,92,89,86,17.72,17.72,10,2,12,0.39
2013-7-6,72.3,69.9,68.5,69.9,67.2,65.7,93,91,88,17.72,17.72,7,1,7,1.73
2013-7-7,80.1,75.1,68.4,72.1,64.7,56.6,94,72,46,17.72,17.72,17,3,17,4.65
2013-7-8,85.3,79.3,68.5,78.5,66.1,56.2,95,68,40,17.72,17.72,6,1,6,0.00
2013-7-9,89.2,80.6,71.4,75.5,65.4,54.0,92,63,33,17.72,17.72,5,0,5,0.04
2013-7-10,91.4,77.1,68.7,77.1,65.2,50.8,91,71,28,29.09,17.72,10,1,17,0.59
2013-7-11,86.0,74.0,68.5,72.9,64.0,54.7,93,74,38,29.00,28.88,6,1,6,0.75
2013-7-12,86.2,76.6,67.3,72.9,55.5,45.4,94,52,29,29.00,28.91,8,1,8,0.00
2013-7-13,83.7,72.7,63.5,63.7,56.1,48.5,84,59,31,29.09,28.97,15,1,15,0.00
2013-7-14,86.4,75.8,69.6,70.2,59.1,49.4,87,59,30,29.21,29.06,11,2,11,0.04
2013-7-15,89.4,78.3,71.6,61.3,55.7,31.4,67,48,22,29.29,29.21,11,3,11,0.00
2013-7-16,93.2,81.7,69.6,71.4,55.6,0.0,84,47,1,29.32,29.23,6,1,6,0.00
2013-7-17,92.3,83.8,70.3,71.6,60.7,46.3,83,50,21,29.29,29.18,7,1,7,0.00
2013-7-18,92.8,87.5,81.1,57.5,50.8,43.7,44,29,19,29.18,29.06,6,1,6,0.00
2013-7-19,88.5,79.4,71.2,70.5,59.6,49.0,81,54,26,29.12,29.00,4,0,4,0.00
2013-7-20,93.4,82.3,71.6,66.7,54.6,44.0,80,46,19,29.06,28.97,0,0,0,0.00
2013-7-21,92.1,92.1,92.1,44.0,44.0,44.0,19,19,19,28.97,28.97,0,0,0,0.00
2013-7-22,84.4,77.7,72.1,59.5,53.6,48.4,64,44,30,28.97,28.88,0,0,0,0.00
2013-7-23,82.0,74.8,70.3,65.2,60.4,53.2,80,62,39,28.97,28.85,5,0,5,0.00
2013-7-24,87.1,75.0,68.0,70.4,59.9,47.2,86,63,29,28.91,28.85,0,0,0,0.00
2013-7-25,89.4,76.0,65.8,62.8,52.4,37.5,81,49,19,29.03,28.88,0,0,0,0.00
2013-7-26,89.1,75.6,63.5,59.6,52.0,41.6,75,47,20,29.09,28.97,0,0,0,0.00
2013-7-27,87.6,75.5,69.4,65.5,56.3,40.9,78,55,20,29.00,28.91,0,0,0,0.00
2013-7-28,89.1,76.3,67.8,63.5,52.0,40.8,76,47,19,29.09,28.94,8,1,8,0.00
2013-7-29,81.7,71.0,61.2,53.2,44.3,34.3,72,42,20,29.21,29.09,0,0,0,0.00
2013-7-30,91.6,76.1,60.6,62.3,48.1,39.2,80,43,18,29.23,29.12,0,0,0,0.00
2013-7-31,76.1,70.5,66.9,70.3,63.6,55.2,92,79,58,29.18,28.97,11,2,11,0.91
2013-8-1,83.7,71.2,68.9,67.6,63.3,48.8,91,79,30,29.00,28.97,6,0,6,0.00
2013-8-2,90.7,74.5,63.9,66.2,53.4,34.6,85,54,18,29.06,28.97,6,0,6,0.00
2013-8-3,88.5,76.0,66.0,67.5,56.4,47.2,81,55,25,29.09,29.03,6,0,6,0.00
2013-8-4,91.6,77.2,68.0,66.5,55.8,44.2,79,52,21,29.09,29.00,9,1,9,0.00
2013-8-5,91.6,78.7,65.7,57.1,44.6,20.3,64,34,8,29.09,29.00,6,1,6,0.00
2013-8-6,87.8,75.4,70.3,65.8,57.7,48.5,85,57,29,29.03,28.97,6,1,6,0.31
2013-8-7,79.2,71.9,69.6,74.2,67.5,57.2,92,86,51,29.06,28.97,10,0,10,0.43
2013-8-8,86.4,75.1,69.6,72.9,66.5,55.2,94,77,40,29.06,29.00,8,1,8,0.98
2013-8-9,89.1,78.3,68.7,75.8,63.6,52.4,94,66,30,29.09,29.00,9,2,9,0.04
2013-8-10,90.0,76.5,71.6,72.0,66.1,53.8,87,72,30,29.15,29.09,8,0,8,0.08
2013-8-11,89.8,75.7,70.2,76.7,65.6,54.8,91,74,32,29.18,29.09,8,1,9,0.00
2013-8-12,92.3,76.9,69.8,74.3,65.0,53.6,89,69,28,29.12,29.00,10,0,10,0.79
2013-8-13,86.4,76.6,71.1,76.1,61.7,48.8,94,65,31,29.00,28.91,7,1,7,0.08
2013-8-14,81.9,72.0,64.2,62.5,52.9,37.5,78,54,23,29.06,28.94,0,0,0,0.00
2013-8-15,81.5,70.4,63.3,51.9,45.2,37.1,65,43,21,29.09,29.03,0,0,0,0.00
2013-8-16,69.1,67.6,66.2,57.7,53.8,45.3,70,62,46,29.12,29.09,0,0,0,0.00
2013-8-17,72.3,67.4,65.7,57.7,53.2,46.5,74,61,41,29.15,29.09,6,0,6,0.00
2013-8-18,76.6,71.8,65.7,69.1,60.3,51.4,89,69,42,29.18,29.12,8,1,8,0.24
2013-8-19,78.4,71.3,67.3,70.8,65.0,58.5,93,82,51,29.15,29.06,6,0,6,1.30
2013-8-20,84.7,75.4,68.5,68.1,61.3,51.2,89,65,32,29.18,29.09,8,1,8,1.30
2013-8-21,86.2,74.8,70.7,69.0,63.1,50.8,86,70,31,29.24,29.12,0,0,0,0.00
2013-8-22,90.5,75.1,69.6,72.0,63.9,50.6,88,71,28,29.18,29.06,0,0,0,0.83
2013-8-23,90.0,77.6,67.1,72.4,58.4,44.4,92,58,24,29.12,29.00,7,0,7,0.00
2013-8-24,88.3,71.6,66.6,64.9,59.4,45.4,85,69,25,29.21,29.09,6,0,6,0.00
2013-8-25,88.3,81.1,68.4,51.8,41.6,30.8,50,27,13,29.35,29.26,10,2,10,0.00
2013-8-26,88.9,74.1,61.7,61.2,46.6,35.0,76,43,15,29.32,29.18,6,1,6,0.00
2013-8-27,90.9,71.8,63.0,64.9,53.1,40.7,79,57,18,29.18,29.06,8,1,8,0.00
2013-8-28,92.1,77.1,66.7,65.3,55.7,42.4,78,52,19,29.09,29.00,6,0,7,0.00
2013-8-29,91.2,74.5,68.5,65.0,60.2,46.7,78,64,22,29.06,28.97,6,0,8,0.00
2013-8-30,92.5,77.0,71.2,66.1,60.7,44.2,80,61,21,29.03,28.94,14,1,14,0.00
2013-8-31,90.7,79.4,71.4,73.9,61.3,51.4,89,58,28,29.00,28.88,8,1,8,0.12
2013-9-1,85.5,75.7,70.7,73.2,63.7,53.3,88,68,36,28.97,28.88,9,1,9,0.51
2013-9-2,83.7,74.6,71.2,70.1,62.5,49.8,91,68,32,29.00,28.88,8,1,8,0.00
2013-9-3,92.8,78.5,70.3,71.1,55.5,36.2,86,51,15,29.03,28.91,0,0,0,0.00
2013-9-4,91.2,73.5,63.9,60.0,49.7,34.8,78,49,15,29.12,29.00,0,0,0,0.00
2013-9-5,89.1,73.8,61.9,60.5,51.1,39.4,80,52,18,29.18,29.09,0,0,0,0.00
2013-9-6,91.0,77.1,61.3,62.1,49.3,39.6,80,44,17,29.18,29.06,0,0,0,0.00
2013-9-7,89.6,81.3,64.8,67.3,49.5,40.0,81,38,19,29.15,29.03,0,0,0,0.00
2013-9-8,83.1,68.5,65.1,63.5,57.7,50.8,81,70,33,29.03,28.97,4,0,4,0.00
2013-9-9,92.7,79.9,70.2,67.5,55.3,41.1,78,48,17,29.12,29.03,6,1,6,0.00
2013-9-10,92.8,78.0,68.4,63.3,53.6,39.9,74,48,17,29.23,29.12,8,1,8,0.00
2013-9-11,94.1,76.9,66.7,68.6,53.0,35.8,81,50,14,29.24,29.12,6,0,6,0.00
2013-9-12,95.2,78.0,67.8,66.2,52.6,31.1,77,48,11,29.12,28.94,8,1,9,0.00
2013-9-13,89.2,73.2,60.4,63.7,45.2,23.2,78,44,11,28.97,28.88,8,1,8,0.00
2013-9-14,83.8,67.1,52.9,43.1,35.5,22.7,62,35,11,29.09,28.97,6,1,8,0.00
2013-9-15,84.9,67.9,57.4,52.7,45.6,36.2,70,49,18,29.15,29.09,10,1,10,0.00
2013-9-16,89.4,71.6,60.4,53.5,43.1,17.5,74,44,8,29.18,29.09,8,1,8,0.00
2013-9-17,84.9,72.7,63.5,55.4,44.9,37.3,67,40,19,29.21,29.12,12,2,12,0.00
2013-9-18,81.0,71.0,65.1,49.2,41.7,33.8,56,36,20,29.23,29.12,8,2,8,0.00
2013-9-19,87.8,72.4,60.4,58.3,46.2,36.5,74,44,18,29.21,29.06,7,1,7,0.00
2013-9-20,90.1,75.5,63.1,61.9,46.2,29.5,78,42,12,29.09,28.91,9,2,9,0.00
2013-9-21,73.6,67.5,59.0,68.1,59.9,50.2,93,78,44,28.91,28.76,10,2,11,1.81
2013-9-22,79.9,64.6,52.9,59.1,44.9,29.4,91,56,18,28.91,28.82,11,1,11,0.00
2013-9-23,84.7,68.4,53.4,54.4,43.1,28.4,83,46,13,29.03,28.91,8,1,8,0.00
2013-9-24,69.3,66.3,62.2,56.8,51.8,45.2,73,60,51,29.03,28.91,9,1,9,0.00
2013-9-25,68.4,68.4,68.4,51.1,51.1,51.1,54,54,54,28.94,28.94,5,5,5,0.00
2013-9-26,78.1,70.4,63.0,51.4,45.7,37.0,65,43,23,29.00,28.94,5,2,6,0.00
2013-9-27,86.0,72.0,56.3,63.7,42.7,23.2,83,44,11,29.15,29.06,6,1,6,0.00
2013-9-28,83.5,76.6,59.7,45.9,34.8,24.3,56,24,12,29.23,29.15,9,3,9,0.00
2013-9-29,80.4,68.3,57.9,47.4,39.6,22.2,60,39,12,29.15,29.03,6,1,8,0.00
2013-9-30,81.7,64.9,55.8,56.8,43.0,27.0,78,50,14,29.09,29.00,10,1,10,0.00
2013-10-1,84.2,66.7,57.9,55.1,48.2,36.3,73,55,19,29.18,29.06,8,0,8,0.00
2013-10-2,86.7,71.3,61.0,55.7,48.0,28.4,76,50,16,29.18,29.06,6,0,6,0.00
2013-10-3,88.0,73.8,64.8,62.8,47.1,28.1,74,45,13,29.15,29.06,10,1,10,0.00
2013-10-4,83.1,68.1,61.3,58.7,51.0,37.9,77,58,20,29.18,29.09,5,0,5,0.00
2013-10-5,90.0,74.2,62.1,64.7,48.0,35.0,81,46,15,29.12,29.00,8,1,8,0.00
2013-10-6,85.6,71.0,59.2,63.5,53.6,41.7,86,58,22,29.00,28.82,15,3,15,0.28
2013-10-7,72.3,61.7,54.5,55.3,42.2,26.8,87,56,19,29.03,28.91,10,2,11,0.51
2013-10-8,78.6,63.3,51.1,47.4,35.8,26.7,58,39,15,29.12,29.03,7,2,7,0.00
2013-10-9,80.6,66.5,58.5,42.4,36.2,22.2,53,36,12,29.21,29.12,8,2,8,0.00
2013-10-10,84.0,70.5,55.9,49.0,40.3,31.8,75,40,16,29.15,29.03,9,1,9,0.00
2013-10-11,83.7,68.1,51.3,43.6,33.0,16.7,74,35,9,29.09,29.00,9,1,9,0.00
2013-10-12,86.5,65.6,52.3,53.9,37.8,22.0,73,43,11,29.12,29.03,9,1,9,0.00
2013-10-13,87.1,68.0,53.4,55.3,39.3,22.8,77,43,11,29.24,29.12,8,1,8,0.00
2013-10-14,85.1,71.5,56.7,58.4,44.0,35.5,78,43,19,29.24,29.12,6,1,7,0.00
2013-10-15,74.1,65.3,60.4,53.2,45.1,35.8,74,51,25,29.15,29.06,8,2,8,0.00
2013-10-16,72.3,63.4,58.8,55.7,49.0,41.5,74,61,33,29.06,28.94,8,1,8,0.00
2013-10-17,72.3,64.7,54.3,66.5,53.6,37.8,89,70,39,29.00,28.88,10,3,10,0.04
2013-10-18,74.7,56.6,47.5,49.4,37.7,19.6,83,57,13,29.06,28.97,10,1,10,0.04
2013-10-19,70.3,59.3,47.5,43.6,35.9,29.0,71,44,22,29.03,28.91,9,1,9,0.00
2013-10-20,72.3,51.5,39.7,41.2,28.0,14.4,77,47,11,29.09,29.03,7,1,8,0.00
2013-10-21,76.3,54.4,38.1,35.7,25.7,13.4,67,40,10,29.12,29.00,8,1,8,0.00
2013-10-22,78.6,62.1,50.9,48.0,32.8,15.6,67,38,10,29.03,28.88,11,1,11,0.00
2013-10-23,57.9,49.8,38.5,41.2,30.7,8.0,62,50,14,29.09,28.85,10,1,10,0.00
2013-10-24,66.6,47.8,36.5,28.1,21.4,11.4,61,41,12,29.26,29.09,10,1,10,0.00
2013-10-25,59.7,44.0,31.8,21.2,11.0,2.5,46,29,12,29.41,29.26,10,2,10,0.00
2013-10-26,64.4,38.5,28.9,31.5,16.4,9.3,67,46,13,29.32,29.18,10,1,10,0.00
2013-10-27,63.5,56.6,50.0,40.3,32.1,25.1,57,40,25,29.15,29.09,8,1,8,0.00
2013-10-28,61.2,54.5,50.7,51.5,45.5,39.8,81,72,54,29.26,29.12,6,0,8,0.00
2013-10-29,75.6,61.6,50.7,56.3,43.1,32.5,84,57,21,29.32,29.20,6,0,6,0.00
2013-10-30,83.1,68.5,56.5,50.0,38.3,26.9,75,37,14,29.26,29.12,10,2,10,0.00
2013-10-31,71.8,65.6,60.4,60.4,45.7,37.8,82,50,37,29.12,28.76,26,5,26,0.08
2013-11-1,77.2,64.5,50.7,60.6,38.7,14.4,85,46,10,28.85,28.73,17,2,17,0.12
2013-11-2,71.4,51.0,44.4,43.8,32.8,14.2,74,54,12,29.09,28.85,8,1,8,0.00
2013-11-3,57.2,44.5,41.2,34.3,27.9,23.4,67,53,27,29.24,29.09,7,1,8,0.00
2013-11-4,67.5,55.9,42.6,26.0,15.9,9.2,50,23,12,29.38,29.32,15,3,15,0.00
2013-11-5,67.3,54.9,44.1,23.2,16.3,8.0,39,23,12,29.44,29.29,10,2,10,0.00
2013-11-6,64.6,57.9,54.3,42.7,37.2,20.2,57,47,26,29.29,29.09,10,4,10,0.00
2013-11-7,57.6,51.0,39.4,49.7,23.3,6.8,79,38,16,29.26,29.09,18,4,18,0.00
2013-11-8,62.8,45.0,33.6,23.1,11.7,-0.8,51,29,11,29.35,29.23,9,2,9,0.00
2013-11-9,57.9,43.4,32.5,27.5,16.7,7.1,54,37,14,29.32,29.21,14,1,14,0.00
2013-11-10,73.2,56.5,42.8,37.8,21.0,6.4,61,31,11,29.29,29.20,10,2,10,0.00
2013-11-11,72.0,51.5,34.5,23.3,12.8,5.1,49,24,11,29.32,29.15,8,1,8,0.00
2013-11-12,56.5,43.8,29.1,27.0,10.4,-7.3,40,26,17,29.50,29.15,19,4,19,0.00
2013-11-13,52.7,35.9,25.5,5.2,-0.6,-7.1,38,22,13,29.59,29.44,10,3,10,0.00
2013-11-14,62.4,35.8,22.6,7.3,3.1,-4.7,48,29,11,29.44,29.26,8,1,8,0.00
2013-11-15,52.9,44.8,36.7,41.3,22.3,-4.7,83,45,16,29.26,29.09,6,0,6,0.12
2013-11-16,59.9,53.8,45.9,52.3,45.1,40.4,85,73,59,29.21,29.09,11,2,11,0.00
2013-11-17,66.9,62.8,59.4,65.4,53.6,45.0,95,73,55,29.09,28.88,14,4,14,0.16
2013-11-18,70.0,58.8,46.8,53.6,28.0,5.5,80,38,11,29.12,28.94,14,4,15,0.04
2013-11-19,60.8,47.5,38.5,13.4,6.7,-0.2,29,20,11,29.21,29.09,15,4,15,0.00
2013-11-20,63.3,49.8,34.7,18.1,11.0,6.5,41,22,13,29.29,29.15,15,3,15,0.00
2013-11-21,65.3,55.4,50.5,40.8,27.4,12.2,59,35,21,29.35,29.26,12,4,12,0.00
2013-11-22,61.2,56.5,52.5,53.6,47.7,40.7,86,73,52,29.29,29.18,8,2,9,0.04
2013-11-23,53.8,46.4,32.7,48.1,25.3,-1.0,81,47,19,29.32,29.18,15,5,15,0.00
2013-11-24,44.6,31.1,23.9,5.0,0.1,-5.1,33,27,15,29.50,29.32,13,6,13,0.00
2013-11-25,43.0,39.1,35.4,31.4,14.6,-1.6,84,45,15,29.29,29.15,8,2,8,0.20
2013-11-26,42.3,37.3,33.6,41.2,35.0,30.8,96,91,79,29.15,28.76,13,2,13,2.99
2013-11-27,36.7,31.0,22.5,30.8,10.4,0.6,79,43,28,29.26,28.79,15,6,18,0.00
2013-11-28,49.6,29.7,17.8,12.1,6.1,-0.2,59,39,14,29.44,29.26,9,1,9,0.00
2013-11-29,57.9,36.6,23.2,23.3,10.1,2.3,67,38,12,29.53,29.44,10,1,10,0.00
2013-11-30,60.3,45.3,34.0,15.0,8.4,1.1,41,24,12,29.50,29.29,11,2,11,0.00
2013-12-1,55.2,43.8,30.6,23.2,18.7,10.6,52,38,18,29.26,29.03,6,0,6,0.00
2013-12-2,49.8,47.4,44.4,47.6,40.2,22.7,92,78,37,28.97,28.82,6,1,6,0.08
2013-12-3,54.9,51.0,47.3,53.2,49.2,45.4,95,93,92,28.85,28.82,5,0,5,0.00
2013-12-4,69.8,64.4,56.5,59.0,52.2,40.9,95,67,36,29.00,28.88,15,5,15,0.00
2013-12-5,72.1,65.9,63.7,64.2,60.1,52.9,92,82,51,29.03,28.94,14,4,14,0.12
2013-12-6,71.4,58.6,39.4,64.8,53.2,34.7,93,83,50,29.21,28.91,17,4,17,1.61
2013-12-7,39.9,38.1,36.5,35.5,28.9,24.1,84,70,54,29.35,29.18,13,5,13,0.00
2013-12-8,47.3,42.8,36.5,45.9,40.5,31.4,96,92,82,29.26,29.09,10,2,10,0.59
2013-12-9,53.2,47.0,41.2,50.3,42.7,34.6,96,86,69,29.15,29.03,13,2,13,0.47
2013-12-10,43.2,37.7,28.4,39.0,23.7,9.4,92,61,25,29.35,29.00,17,4,17,0.55
2013-12-11,55.2,37.8,23.9,26.9,15.8,5.7,80,46,15,29.44,29.32,6,1,6,0.00
2013-12-12,45.9,33.3,25.5,13.0,6.3,-2.0,53,34,15,29.50,29.38,10,3,10,0.00
2013-12-13,52.2,36.2,22.5,19.3,9.0,0.5,57,35,14,29.38,29.12,6,1,6,0.00
2013-12-14,51.3,47.3,38.1,49.3,37.9,12.4,93,74,27,29.15,28.79,13,3,13,0.75
2013-12-15,42.1,35.4,30.6,30.2,22.0,15.7,75,58,47,29.21,28.91,12,4,12,0.00
2013-12-16,55.9,38.8,25.3,27.6,17.9,6.3,79,48,15,29.23,29.12,10,2,10,0.00
2013-12-17,66.9,47.0,34.9,20.2,14.4,4.4,52,30,12,29.23,29.06,13,3,13,0.00
2013-12-18,57.4,40.2,29.7,14.4,7.8,2.5,46,28,12,29.35,29.23,8,1,8,0.00
2013-12-19,62.8,45.1,30.2,12.5,6.9,2.3,44,23,11,29.29,29.15,12,2,12,0.00
2013-12-20,63.0,55.3,45.3,39.4,20.1,3.4,49,27,14,29.18,29.06,12,4,12,0.00
2013-12-21,69.1,63.6,58.1,64.8,52.5,39.2,94,68,49,29.06,28.85,20,6,20,0.28
2013-12-22,67.5,57.5,53.6,64.7,53.7,46.0,94,87,50,29.06,28.82,18,4,18,1.46
2013-12-23,53.6,42.1,30.7,51.5,29.2,14.6,94,62,42,29.32,29.03,15,4,15,0.08
2013-12-24,39.4,31.1,26.8,16.7,7.1,-5.0,61,39,18,29.44,29.32,14,4,14,0.00
2013-12-25,52.5,32.7,19.9,14.4,7.2,-0.2,60,37,13,29.41,29.29,8,1,8,0.00
2013-12-26,57.0,36.8,26.2,22.4,12.4,4.4,58,41,13,29.35,29.29,8,1,8,0.00
2013-12-27,59.4,38.4,25.9,27.9,13.0,2.5,71,41,12,29.44,29.32,6,0,6,0.00
2013-12-28,39.2,35.9,32.0,34.5,24.9,13.1,89,65,43,29.35,28.91,5,0,5,0.98
2013-12-29,49.6,43.4,37.4,44.7,36.2,30.6,94,78,49,29.06,28.88,8,1,8,0.31
2013-12-30,41.4,39.0,36.1,37.7,29.8,20.0,88,71,47,29.21,29.03,7,1,7,0.00
2013-12-31,44.8,35.2,29.5,28.8,18.1,4.2,78,53,20,29.41,29.21,11,1,11,0.00
2014-1-1,51.6,38.2,26.8,28.5,17.5,8.3,75,47,19,29.32,29.06,10,2,10,0.00
2014-1-2,46.9,36.8,21.7,45.3,22.8,-2.3,94,59,34,29.21,28.79,19,6,19,0.24